Stations météo

réclame
Mon MeteoGroup
Gourette, France (7775): Température de l'air & dewpoint: 16.09.2018 07:00:00 - 22.09.2018 07:00:00 (CEST)Gourette, France (7775): Vitesse du vent & gusts: 16.09.2018 07:00:00 - 22.09.2018 07:00:00 (CEST)Gourette, France (7775): Direction du vent: 16.09.2018 07:00:00 - 22.09.2018 07:00:00 (CEST)Gourette, France (7775): reduced air pressure: 16.09.2018 07:00:00 - 22.09.2018 07:00:00 (CEST)Gourette, France (7775): visibility: 16.09.2018 07:00:00 - 22.09.2018 07:00:00 (CEST)Gourette, France (7775): Quantités de précipitations: 16.09.2018 07:00:00 - 22.09.2018 07:00:00 (CEST)
Date & Time tt [°C] td [°C] ff [km/h] ff [knt] fx [km/h] fx [knt] dd ppp [hPa] vv [km] rr [mm]
22.09.2018 07:00:00 21,6 16,1 15 8 19 10 S 1014,8 - 0,0
22.09.2018 06:00:00 19,7 16,0 18 10 26 14 SSW 1015,1 - 0,0
22.09.2018 05:00:00 19,9 16,1 24 13 27 15 SSW 1015,1 15 0,0
22.09.2018 04:00:00 20,8 16,2 19 10 27 14 SW 1015,2 - 0,0
22.09.2018 03:00:00 20,9 16,5 18 10 25 13 SSW 1015,6 - 0,0
22.09.2018 02:00:00 19,5 16,5 18 10 22 12 SW 1016,1 - 0,0
22.09.2018 01:00:00 20,1 16,5 14 8 23 12 SW 1016,4 - 0,0
22.09.2018 00:00:00 21,1 17,1 16 9 24 13 SW 1016,6 - 0,0
21.09.2018 23:00:00 20,1 17,5 18 10 24 13 SSW 1016,4 - 0,0
21.09.2018 22:00:00 21,1 19,0 3 1 12 6 N 1016,4 - 0,0
21.09.2018 21:00:00 22,6 19,2 5 3 16 8 SSE 1016,0 - 0,0
21.09.2018 20:00:00 23,3 19,9 12 7 15 8 SW 1015,3 - 0,0
21.09.2018 19:00:00 24,9 19,7 13 7 18 10 S 1015,0 - 0,0
21.09.2018 18:00:00 25,9 20,0 13 7 19 11 SSE 1015,1 - 0,0
21.09.2018 17:00:00 26,8 19,7 10 6 23 12 SSE 1015,3 18 0,0
21.09.2018 16:00:00 28,2 20,5 10 5 20 11 SE 1015,4 - 0,0
21.09.2018 15:00:00 28,7 19,3 10 6 18 10 SE 1015,2 - 0,0
21.09.2018 14:00:00 27,3 20,4 11 6 24 13 E 1015,5 15 0,0
21.09.2018 13:00:00 27,8 20,9 15 8 27 15 ENE 1015,8 - 0,0
21.09.2018 12:00:00 27,8 19,6 18 10 27 14 ENE 1015,8 - 0,0
21.09.2018 11:00:00 29,8 18,6 19 11 27 15 NNE 1015,8 - 0,0
21.09.2018 10:00:00 28,0 19,0 15 8 22 12 NNE 1015,6 - 0,0
21.09.2018 09:00:00 25,0 17,5 11 6 20 11 NNW 1015,3 - 0,0
21.09.2018 08:00:00 22,6 15,7 13 7 18 10 N 1015,3 - 0,0
21.09.2018 07:00:00 22,4 15,5 13 7 20 11 NNW 1014,8 - 0,0
21.09.2018 06:00:00 23,3 15,4 11 6 15 8 NNW 1014,8 - 0,0
21.09.2018 05:00:00 23,9 15,4 9 5 14 8 NNW 1015,2 - 0,0
21.09.2018 04:00:00 23,8 15,3 13 7 18 10 NW 1015,1 - 0,0
21.09.2018 03:00:00 24,6 15,0 14 7 16 9 NW 1015,4 - 0,0
21.09.2018 02:00:00 24,7 14,5 10 5 15 8 NW 1015,5 - 0,0
21.09.2018 01:00:00 22,6 14,9 7 4 17 9 W 1016,1 - 0,0
21.09.2018 00:00:00 23,1 14,9 12 6 20 11 NNW 1016,6 - 0,0
20.09.2018 23:00:00 22,6 15,4 17 9 20 11 NNW 1016,8 - 0,0
20.09.2018 22:00:00 24,1 16,9 0 0 11 6 N 1016,5 - 0,0
20.09.2018 21:00:00 22,4 17,1 8 4 10 6 SW 1016,5 - 0,0
20.09.2018 20:00:00 24,3 17,1 6 3 11 6 NW 1016,0 - 0,0
20.09.2018 19:00:00 25,0 17,5 10 5 12 7 E 1016,1 - 0,0
20.09.2018 18:00:00 27,0 18,8 10 5 16 9 E 1016,2 - 0,0
20.09.2018 17:00:00 29,3 17,8 11 6 21 11 NE 1016,2 - 0,0
20.09.2018 16:00:00 29,7 17,5 15 8 25 14 NNE 1016,4 - 0,0
20.09.2018 15:00:00 27,6 18,0 18 10 31 17 NE 1016,9 - 0,0
20.09.2018 14:00:00 30,1 18,5 20 11 32 18 NNE 1017,2 - 0,0
20.09.2018 13:00:00 28,9 19,5 26 14 36 19 NE 1017,4 - 0,0
20.09.2018 12:00:00 29,2 19,8 29 15 41 22 NNE 1017,6 - 0,0
20.09.2018 11:00:00 28,1 19,6 27 15 40 21 NNE 1017,6 - 0,0
20.09.2018 10:00:00 26,4 19,8 24 13 39 21 N 1017,5 - 0,0
20.09.2018 09:00:00 23,6 19,5 18 10 32 17 N 1017,4 - 0,0
20.09.2018 08:00:00 22,3 18,7 19 11 27 15 N 1017,3 - 0,0
20.09.2018 07:00:00 22,2 18,8 22 12 36 20 N 1017,0 - 0,0
20.09.2018 06:00:00 22,4 17,3 16 8 23 12 N 1016,9 - 0,0
20.09.2018 05:00:00 22,5 17,4 18 10 27 15 NNW 1016,9 15 0,0
20.09.2018 04:00:00 22,1 17,2 18 10 26 14 N 1017,2 - 0,0
20.09.2018 03:00:00 22,2 17,1 15 8 22 12 N 1017,6 - 0,0
20.09.2018 02:00:00 21,7 17,3 15 8 19 11 NNW 1017,9 - 0,0
20.09.2018 01:00:00 21,8 17,6 14 8 19 11 NNW 1018,3 - 0,0
20.09.2018 00:00:00 22,2 17,1 14 8 18 10 NNW 1018,5 - 0,0
19.09.2018 23:00:00 22,6 18,4 12 6 14 8 NW 1018,5 - 0,0
19.09.2018 22:00:00 22,2 19,9 3 2 8 4 NNW 1018,6 - 0,0
19.09.2018 21:00:00 23,0 20,3 2 1 5 3 W 1018,4 - 0,0
19.09.2018 20:00:00 22,8 20,5 5 3 6 4 WSW 1018,1 - 0,0
19.09.2018 19:00:00 24,4 20,7 3 2 11 6 ENE 1017,9 - 0,0
19.09.2018 18:00:00 25,6 20,4 8 5 20 11 ENE 1018,0 - 0,0
19.09.2018 17:00:00 26,6 21,1 12 7 24 13 NE 1017,7 - 0,0
19.09.2018 16:00:00 27,1 21,2 14 8 26 14 NE 1017,7 - 0,0
19.09.2018 15:00:00 27,8 21,6 16 9 26 14 NE 1018,2 - 0,0
19.09.2018 14:00:00 26,9 21,4 17 9 25 14 NE 1018,4 20 0,0
19.09.2018 13:00:00 28,2 22,2 18 10 26 14 NNE 1018,5 - 0,0
19.09.2018 12:00:00 25,5 22,2 11 6 17 9 N 1018,8 - 0,0
19.09.2018 11:00:00 24,6 22,5 10 5 18 10 NNE 1019,0 - 0,0
19.09.2018 10:00:00 21,9 20,9 14 8 19 10 NNW 1018,4 - 0,0
19.09.2018 09:00:00 20,8 19,8 3 2 14 8 NNW 1018,2 - 0,0
19.09.2018 08:00:00 20,3 19,6 10 5 14 8 WSW 1018,4 15 0,7
19.09.2018 07:00:00 20,9 19,9 8 4 20 11 NW 1018,3 - 1,2
19.09.2018 06:00:00 20,8 20,0 12 7 22 12 N 1018,0 - 3,0
19.09.2018 05:00:00 22,1 20,0 14 7 30 16 N 1017,8 15 0,0
19.09.2018 04:00:00 22,4 19,8 8 4 14 8 N 1017,6 - 0,0
19.09.2018 03:00:00 22,5 19,9 11 6 16 9 NNW 1017,7 - 0,0
19.09.2018 02:00:00 22,7 20,4 12 7 21 11 NNW 1018,2 - 0,0
19.09.2018 01:00:00 22,8 20,0 15 8 18 10 NNW 1018,1 - 0,0
19.09.2018 00:00:00 23,1 20,1 10 6 14 8 NNW 1018,2 - 0,0
18.09.2018 23:00:00 23,4 20,1 13 7 16 9 NW 1018,1 - 0,0
18.09.2018 22:00:00 23,2 19,4 8 4 24 13 WNW 1018,2 - 0,0
18.09.2018 21:00:00 23,3 21,9 5 3 17 9 W 1017,7 - 0,2
18.09.2018 20:00:00 23,8 21,7 12 7 17 9 SW 1017,5 15 0,0
18.09.2018 19:00:00 24,6 22,3 10 5 16 8 S 1017,6 - 0,0
18.09.2018 18:00:00 25,0 22,1 10 5 21 11 S 1017,1 - 0,0
18.09.2018 17:00:00 25,6 22,1 15 8 26 14 SSE 1017,2 15 0,0
18.09.2018 16:00:00 26,6 22,7 12 6 22 12 SSE 1017,5 - 0,0
18.09.2018 15:00:00 26,1 21,3 11 6 26 14 SSE 1018,1 - 0,0
18.09.2018 14:00:00 27,3 21,8 14 8 23 13 ESE 1018,2 25 0,0
18.09.2018 13:00:00 27,4 21,9 10 6 19 11 ESE 1018,5 - 0,0
18.09.2018 12:00:00 25,9 21,3 7 4 18 10 SE 1019,5 - 0,0
18.09.2018 11:00:00 26,6 21,1 5 3 12 6 ESE 1019,6 - 0,0
18.09.2018 10:00:00 23,3 20,1 5 3 12 7 N 1019,2 - 0,0
18.09.2018 09:00:00 22,0 19,0 9 5 16 8 NNW 1019,0 - 0,0
18.09.2018 08:00:00 20,5 17,7 14 7 21 11 N 1019,0 - 0,0
18.09.2018 07:00:00 20,8 17,2 5 3 7 4 NE 1018,7 - 0,0
18.09.2018 06:00:00 21,0 17,4 4 2 6 4 NNE 1018,6 - 0,0
18.09.2018 05:00:00 20,8 18,0 3 1 11 6 W 1018,5 20 0,0
18.09.2018 04:00:00 20,6 18,7 8 4 11 6 SSW 1018,5 - 0,0
18.09.2018 03:00:00 20,6 18,5 6 3 11 6 SW 1018,7 - 0,0
18.09.2018 02:00:00 21,4 17,8 7 4 11 6 NNW 1019,0 - 0,0
18.09.2018 01:00:00 22,1 17,5 3 1 11 6 NNE 1019,2 - 0,0
18.09.2018 00:00:00 21,6 17,6 9 5 10 6 WNW 1019,2 - 0,0
17.09.2018 23:00:00 20,0 18,5 6 3 13 7 SW 1019,7 - 0,0
17.09.2018 22:00:00 20,0 19,0 5 3 17 9 NNW 1019,6 - 0,0
17.09.2018 21:00:00 20,3 19,3 16 8 19 10 NNW 1019,2 - 0,0
17.09.2018 20:00:00 20,9 20,1 5 3 9 5 NW 1019,3 - 0,0
17.09.2018 19:00:00 21,8 21,0 5 3 10 5 NNW 1019,3 - 0,2
17.09.2018 18:00:00 20,4 19,9 9 5 14 8 WSW 1018,8 - 0,0
17.09.2018 17:00:00 20,4 19,9 9 5 20 11 WSW 1019,3 10 0,7
17.09.2018 16:00:00 19,2 18,5 14 7 46 25 WNW 1019,8 - 18,4
17.09.2018 15:00:00 22,3 17,9 24 13 49 26 NW 1020,2 - 0,0
17.09.2018 14:00:00 26,5 20,1 19 10 33 18 E 1020,0 - 0,0
17.09.2018 13:00:00 27,7 21,3 14 8 28 15 ESE 1020,3 - 0,0
17.09.2018 12:00:00 26,8 20,9 10 6 21 11 E 1020,8 - 0,0
17.09.2018 11:00:00 27,5 20,1 8 4 19 11 ENE 1021,0 15 0,0
17.09.2018 10:00:00 27,2 20,0 8 4 17 9 ENE 1021,1 - 0,0
17.09.2018 09:00:00 23,2 18,7 11 6 22 12 NNW 1021,1 - 0,0
17.09.2018 08:00:00 22,2 18,8 17 9 24 13 NNW 1020,9 - 0,0
17.09.2018 07:00:00 22,2 18,2 14 8 20 11 N 1020,6 - 0,0
17.09.2018 06:00:00 22,6 18,4 12 6 15 8 NNW 1020,6 - 0,0
17.09.2018 05:00:00 22,8 18,3 8 4 11 6 NNW 1020,5 - 0,0
17.09.2018 04:00:00 22,9 19,5 5 3 8 4 WSW 1020,7 - 0,0
17.09.2018 03:00:00 22,9 20,4 3 2 9 5 SW 1020,7 - 0,0
17.09.2018 02:00:00 22,6 19,9 9 5 11 6 WSW 1021,1 - 0,0
17.09.2018 01:00:00 22,6 20,1 9 5 10 5 WSW 1021,2 - 0,0
17.09.2018 00:00:00 22,3 20,2 5 3 10 6 SSW 1021,4 - 0,0
16.09.2018 23:00:00 22,3 19,8 5 3 9 5 S 1021,6 - 0,0
16.09.2018 22:00:00 22,7 20,4 5 3 11 6 SW 1021,4 - 0,0
16.09.2018 21:00:00 22,9 20,8 9 5 11 6 WSW 1021,4 - 0,0
16.09.2018 20:00:00 23,8 20,9 5 3 12 6 S 1021,0 - 0,0
16.09.2018 19:00:00 24,8 21,1 5 3 17 9 SE 1020,7 - 0,0
16.09.2018 18:00:00 25,9 21,1 9 5 22 12 SE 1020,8 - 0,0
16.09.2018 17:00:00 26,3 20,8 13 7 28 15 SE 1020,8 20 0,0
16.09.2018 16:00:00 27,2 20,8 15 8 28 15 SE 1020,9 - 0,0
16.09.2018 15:00:00 27,9 20,7 14 8 26 14 SE 1021,1 - 0,0
16.09.2018 14:00:00 27,1 20,9 14 8 27 14 SE 1021,2 20 0,0
16.09.2018 13:00:00 27,5 20,3 19 10 31 17 SE 1021,5 - 0,0
16.09.2018 12:00:00 28,5 19,7 12 7 23 13 SE 1021,6 - 0,0
16.09.2018 11:00:00 28,0 20,3 9 5 20 11 SE 1021,8 - 0,0
16.09.2018 10:00:00 25,6 19,5 6 4 10 6 S 1021,8 - 0,0
16.09.2018 09:00:00 23,8 18,2 2 1 8 4 SW 1021,6 - 0,0
16.09.2018 08:00:00 21,5 17,7 7 4 12 6 SSE 1021,2 - 0,0
16.09.2018 07:00:00 22,2 17,6 8 5 12 6 SSW 1020,9 - 0,0

tt = Température de l'air
td = dewpoint
ff = Vitesse du vent
fx = gusts
dd = Direction du vent
ppp = reduced air pressure
vv = visibility
rr = Quantités de précipitations

stations d'obs. à proximité